Wind_Speed
14 15 17 19 18 15 12 10 8 7 6 6 5 6 8 10 12 10 9 11 13 13 13 15 19 21 22 23 17 13 16 16 19 24 30 39 44 46 53 56 56 55 54 53 53 55 54 49 46 45 45 44 43 44 44 44 43 43 43 42 42 41 40 39 38 37 37 36 37 37 38 38 37 36 34 33 33 33 32 32 32 31 31 31 32 31
20 23 25 21 17 14 11 9 8 7 5 6 7 9 10 11 11 10 10 12 14 14 14 15 18 19 18 20 17 15 16 16 20 24 29 38 42 47 56 57 55 55 54 55 55 55 53 49 47 46 46 45 44 45 45 44 43 42 42 42 41 40 39 38 37 36 36 36 36 37 38 39 38 37 36 34 33 33 32 32 32 32 31 31 31 31
26 31 30 24 22 17 12 9 8 6 6 7 9 10 10 11 11 10 12 13 15 15 14 15 18 19 18 18 17 15 15 15 21 25 29 36 41 48 57 56 54 56 56 56 55 54 52 49 47 46 46 46 45 45 45 44 43 42 42 41 40 39 38 37 36 35 35 36 36 37 37 38 38 38 36 34 33 32 32 32 32 33 33 32 32 31
29 32 30 27 25 20 17 14 10 7 7 7 8 8 8 10 12 12 14 14 15 15 13 17 21 20 21 19 15 14 14 17 22 25 29 34 40 48 55 55 54 56 58 57 54 52 51 48 47 46 46 46 45 45 44 44 43 42 41 40 39 38 37 36 35 35 35 35 36 37 38 38 38 38 37 35 33 32 31 31 32 33 34 34 34 33
31 30 29 27 24 22 21 19 14 10 10 10 9 8 7 8 10 13 15 16 17 16 15 21 21 17 21 19 14 14 15 19 22 25 30 33 39 48 54 54 54 57 58 54 52 51 49 47 46 46 45 45 44 44 44 44 42 41 40 40 38 37 36 36 35 34 34 35 36 37 38 39 38 39 39 38 37 36 34 33 33 33 34 34 35 35
30 27 25 24 23 24 22 20 19 15 13 13 10 9 8 8 9 12 14 16 18 16 17 22 14 13 22 20 16 18 19 21 23 26 31 33 39 49 54 54 54 56 56 52 50 50 48 47 46 45 45 44 44 44 43 43 41 40 40 39 38 37 36 35 35 35 35 36 37 38 39 40 40 40 40 40 40 40 39 39 38 37 36 36 36 37
26 24 21 22 23 23 22 21 21 19 16 15 13 11 9 9 10 11 14 16 16 15 18 17 8 14 25 21 19 22 21 23 24 27 32 34 41 52 54 54 53 55 55 52 51 50 47 47 46 45 45 44 44 44 43 42 40 39 39 39 38 36 36 35 35 36 37 38 39 40 40 40 40 40 39 39 39 39 40 41 41 40 40 40 39 39
23 21 20 21 22 21 22 22 22 21 19 17 15 13 11 11 11 11 14 14 14 17 15 10 8 15 21 22 24 23 21 22 25 29 32 35 44 53 54 53 53 54 56 54 52 50 47 47 46 46 45 44 44 44 43 42 40 39 39 39 37 36 35 35 36 37 38 39 40 41 41 40 40 40 39 38 38 38 39 40 41 41 41 41 41 42
22 21 21 21 21 20 22 24 23 21 20 19 16 12 11 11 11 12 13 12 14 16 11 8 10 11 17 25 24 19 19 22 27 31 33 38 47 52 53 53 53 55 57 55 52 50 48 47 46 45 44 44 44 44 43 42 40 39 38 38 37 36 35 36 36 37 39 40 41 42 41 41 40 39 38 38 38 38 39 40 41 41 42 42 42 43
21 21 20 21 22 20 20 23 24 21 20 20 17 12 10 9 10 10 10 10 11 10 7 10 14 10 15 26 21 14 20 25 30 33 34 42 48 50 52 53 54 55 56 55 53 51 49 46 45 44 43 43 43 43 43 41 39 38 38 38 37 36 35 35 36 37 39 41 42 42 42 42 42 41 39 38 38 38 39 40 41 42 42 43 43 43
19 18 18 21 22 20 19 21 23 23 20 20 20 14 9 7 7 8 7 8 6 4 5 12 19 13 11 20 22 19 24 29 31 33 37 44 48 49 51 52 53 54 54 53 54 53 50 46 44 43 42 42 42 42 42 41 39 38 37 37 36 35 35 35 36 37 39 41 42 43 43 44 43 42 41 40 39 39 40 41 42 43 43 43 43 43
17 16 17 19 20 20 18 18 21 24 22 20 21 18 11 6 6 8 9 8 4 3 8 15 23 16 9 16 25 25 28 30 30 33 40 45 47 49 51 52 52 52 52 53 54 55 52 47 44 43 42 41 41 41 41 40 39 37 37 36 36 35 34 35 35 37 40 41 43 43 44 45 44 43 42 41 40 41 42 43 44 44 44 44 44 44
14 15 16 15 16 18 18 17 19 22 24 22 22 22 14 4 5 6 5 5 1 4 11 17 19 13 11 19 26 25 28 28 29 36 42 45 47 50 51 51 51 51 51 52 53 55 52 47 45 42 41 40 40 41 41 40 39 37 36 36 35 35 34 35 36 37 40 42 43 44 45 45 45 43 42 41 41 41 42 44 45 45 46 46 46 46
11 12 14 13 13 15 17 20 19 20 25 25 23 23 14 4 4 4 4 3 3 8 14 14 10 10 17 23 24 25 26 25 32 40 43 45 47 49 50 50 50 51 52 51 52 55 53 47 44 42 40 40 40 40 41 40 39 36 35 35 35 35 34 34 36 37 40 42 43 44 45 46 45 44 43 42 42 42 43 44 45 47 47 47 47 47
7 7 11 12 12 14 16 19 19 18 22 25 21 18 14 8 4 1 3 1 6 14 17 11 6 12 22 23 24 26 24 26 36 42 43 45 46 47 50 50 50 52 52 49 51 54 52 47 44 41 40 40 40 40 40 40 39 36 35 35 35 34 34 34 36 37 40 42 43 44 45 45 45 45 43 42 42 42 43 45 46 47 48 48 48 48
4 5 10 11 11 13 14 16 18 17 17 21 21 15 11 9 5 2 4 6 11 14 12 10 13 19 23 22 25 27 25 30 39 43 44 44 45 46 48 49 50 51 51 48 49 54 52 48 44 41 40 40 40 40 40 40 38 36 35 35 34 34 33 34 35 37 40 42 43 44 45 46 46 45 44 43 42 42 43 45 46 47 48 48 48 48
5 4 9 10 9 11 12 13 17 17 16 17 19 16 9 6 6 6 5 7 9 6 5 11 19 25 23 21 29 30 27 33 40 43 44 43 43 45 47 49 50 51 49 47 49 53 53 48 44 42 41 40 40 40 40 40 38 36 35 34 34 33 33 34 35 37 39 41 43 44 45 46 46 46 45 44 42 42 43 45 46 47 47 47 47 47
8 4 8 10 9 9 10 12 14 16 16 16 15 15 11 6 8 8 4 4 3 1 6 13 19 25 21 20 32 32 28 34 41 43 44 43 43 45 48 50 51 51 49 47 50 53 52 48 45 43 42 41 41 40 40 39 38 36 35 34 33 33 33 34 35 37 39 41 42 44 45 46 47 47 46 45 43 43 44 45 46 47 47 48 47 47
10 7 9 11 10 9 8 10 12 13 15 16 14 13 11 6 7 9 4 3 3 1 7 13 17 21 19 21 32 32 30 38 44 44 44 43 44 46 49 50 51 52 50 47 50 52 51 48 46 44 42 41 41 40 40 39 37 36 35 33 33 33 33 34 35 37 39 41 42 43 45 46 46 47 46 45 44 43 44 45 46 47 47 48 47 47
11 8 11 13 11 9 8 9 12 12 13 15 14 13 11 6 7 10 4 2 2 2 4 10 15 18 18 23 31 32 33 40 43 45 45 44 45 46 48 50 51 52 50 47 49 52 51 48 46 44 42 40 41 40 39 38 37 37 34 33 33 32 33 34 35 37 38 40 42 43 45 45 46 47 47 46 44 43 44 45 46 47 48 48 47 47
13 9 13 16 12 9 9 9 11 12 13 15 16 14 12 9 9 10 6 5 4 3 1 2 10 19 22 24 31 33 35 39 42 45 45 43 45 46 47 50 52 52 50 48 49 51 49 47 45 43 41 40 40 40 39 38 37 36 34 32 32 32 33 33 34 36 38 40 41 43 44 45 46 47 47 46 45 43 43 44 46 47 48 48 47 47
13 10 16 20 15 11 11 9 10 12 13 15 17 16 15 13 11 7 4 6 6 7 6 3 9 22 25 25 33 36 35 38 41 42 44 44 44 45 47 50 52 52 50 48 49 49 47 45 43 41 40 40 40 39 38 38 37 36 34 32 32 32 33 33 34 36 38 39 41 42 44 45 46 47 47 47 45 44 44 44 46 47 48 48 47 47
14 9 16 21 16 12 10 8 9 11 12 16 17 18 18 17 15 7 3 9 11 12 13 9 10 20 27 27 35 37 34 38 39 40 43 43 43 45 48 50 52 51 49 47 48 47 45 44 42 40 39 39 40 39 38 37 37 36 35 33 32 32 33 33 34 36 37 39 40 41 43 44 46 47 48 47 46 45 44 45 46 47 48 48 48 46
14 11 17 21 17 12 9 7 8 10 14 18 18 20 20 18 17 13 10 14 15 16 14 6 8 22 34 34 36 35 34 37 38 40 43 42 43 47 49 51 51 49 47 46 46 46 44 43 41 39 39 39 40 39 38 37 37 36 35 33 32 32 32 33 34 36 37 38 40 41 42 44 45 47 48 48 48 46 45 45 46 48 49 48 48 47
14 13 18 19 16 14 11 9 13 18 21 21 20 20 20 19 18 16 14 13 11 14 12 5 10 30 41 37 35 35 35 38 39 41 43 43 45 48 49 50 48 46 45 45 45 45 43 42 41 39 39 39 40 39 38 37 37 36 35 34 33 32 32 33 34 35 37 38 39 40 41 43 45 47 48 49 49 47 46 46 47 48 49 49 48 47
15 16 17 13 8 8 9 13 19 25 25 22 20 19 20 22 20 18 16 12 11 14 14 12 20 38 43 37 35 36 38 41 42 42 43 44 46 48 49 48 46 44 44 43 44 44 43 42 41 39 39 39 40 39 38 37 36 36 35 34 33 32 32 33 34 35 36 37 39 40 41 42 44 46 48 49 49 48 46 46 47 48 49 49 49 47
17 18 17 15 13 13 17 21 21 23 25 24 22 21 22 23 23 22 19 17 16 17 22 25 30 41 43 39 36 38 40 42 43 43 44 45 47 48 48 46 45 44 43 43 44 44 42 41 40 39 38 38 39 39 38 37 36 36 35 34 33 32 32 33 34 35 36 37 38 39 40 42 44 46 48 49 50 49 47 46 47 49 50 50 49 48
18 18 18 20 21 21 23 22 18 19 23 25 25 24 24 23 24 25 23 22 20 18 25 33 34 37 42 40 35 38 41 41 42 43 43 45 46 47 47 45 44 44 43 43 44 43 42 41 40 39 38 38 39 39 38 37 36 36 35 34 33 32 32 33 34 35 36 37 38 38 39 41 43 45 47 49 50 49 48 47 48 49 50 50 50 48
18 18 19 21 24 24 20 17 19 22 24 26 28 27 24 21 22 25 25 26 24 23 28 35 36 38 41 36 34 39 40 40 42 42 42 43 45 46 46 45 44 44 43 43 43 43 42 41 40 39 38 39 39 39 38 37 36 36 35 34 33 32 33 33 34 35 36 37 37 38 39 40 42 45 47 48 50 50 49 49 48 49 50 51 50 49
17 20 20 21 25 24 17 16 22 25 25 26 23 20 17 16 18 23 26 26 26 27 31 35 38 41 37 32 35 40 40 41 42 40 41 42 43 45 46 45 45 45 44 43 43 42 42 41 40 39 39 39 39 39 38 37 37 36 36 34 33 33 33 33 34 35 36 36 37 37 38 39 41 44 46 48 49 50 50 50 49 50 51 51 50 49
18 21 21 24 27 23 19 22 25 26 27 22 15 13 16 18 20 22 23 22 23 28 33 35 39 40 35 32 37 41 41 42 42 41 41 42 43 46 46 46 47 46 44 43 42 42 42 41 40 40 40 40 40 40 39 37 37 37 36 35 34 33 33 33 33 34 35 36 36 37 38 39 41 43 45 47 49 50 51 51 50 50 51 51 51 50
19 20 23 26 27 25 25 26 28 28 24 17 15 19 22 22 19 16 18 21 23 29 34 35 37 37 36 36 40 42 42 43 42 42 41 41 43 45 46 47 47 46 44 43 42 42 42 41 40 40 40 40 40 40 39 38 37 37 36 35 34 33 33 33 33 34 35 35 36 37 37 39 40 42 44 46 49 51 51 51 51 50 51 52 51 50
19 20 23 24 26 28 28 26 29 27 17 14 19 22 21 18 14 14 21 25 27 30 31 32 34 35 36 38 41 42 43 43 43 42 41 42 44 45 46 47 47 46 44 42 41 41 41 40 39 39 40 40 40 40 40 38 37 37 37 35 34 33 33 32 32 33 34 35 35 36 37 39 41 42 44 46 48 50 52 52 52 51 52 52 52 51
19 21 22 21 25 29 29 29 27 17 10 16 21 18 15 15 16 20 26 29 29 29 27 29 34 35 36 38 40 42 43 43 42 41 39 41 43 44 46 46 47 46 44 42 41 41 40 40 39 39 40 40 40 40 40 39 38 38 37 35 34 33 33 32 32 33 34 34 35 36 37 39 41 43 45 46 48 50 52 53 53 52 52 52 52 51
20 21 21 21 24 28 30 28 17 8 14 21 18 15 15 16 21 27 30 31 30 25 25 31 35 36 36 38 39 41 43 43 42 40 39 40 42 44 45 46 46 47 44 42 41 40 40 40 39 39 40 40 40 40 40 39 38 37 37 35 33 33 32 32 32 33 34 34 34 36 37 38 41 43 45 47 49 51 52 53 54 53 53 53 52 51
20 20 21 22 23 23 24 19 10 13 24 22 15 18 19 19 26 30 32 35 29 21 27 35 36 36 37 38 39 40 42 44 43 40 39 41 43 44 45 46 46 46 45 42 40 40 40 39 38 39 40 40 40 40 40 40 38 37 36 34 33 33 32 32 32 32 33 34 34 35 36 38 41 43 46 48 49 51 53 54 54 54 54 53 52 50
19 21 23 21 18 19 22 23 22 23 24 20 18 22 22 24 29 29 34 37 27 22 34 39 36 37 37 37 39 40 42 45 45 41 41 43 44 45 46 46 46 46 46 43 41 40 40 39 38 38 39 40 40 41 41 40 38 37 35 33 32 32 32 32 32 32 33 34 34 35 36 38 40 43 46 48 50 51 53 54 55 55 54 54 53 51
21 24 24 20 18 19 21 23 20 15 17 22 24 24 25 30 31 29 34 36 29 29 39 39 35 38 38 36 39 40 42 46 46 44 43 44 44 44 45 46 45 46 46 44 41 40 40 39 38 38 39 40 40 41 41 40 39 37 35 32 32 32 32 32 31 31 33 33 34 35 36 38 40 43 45 48 50 52 53 54 55 55 54 54 53 51
23 25 25 22 21 20 19 16 9 8 17 25 24 24 28 31 31 30 31 34 35 38 39 37 37 38 37 37 39 40 41 45 47 45 44 44 44 44 45 45 45 46 46 44 41 40 39 39 37 37 38 39 40 42 42 41 40 38 34 32 31 31 32 31 31 31 32 33 34 35 36 38 40 42 45 48 50 52 53 54 55 55 54 54 53 51
25 26 25 23 22 20 19 17 15 17 22 23 20 25 30 31 32 26 21 29 40 40 36 36 37 36 35 36 37 38 39 41 44 45 44 43 44 43 44 45 44 45 46 44 41 39 39 38 37 37 38 39 40 42 42 41 40 38 35 32 31 32 31 31 31 31 31 32 34 35 36 38 40 42 45 47 50 52 53 54 55 55 55 54 53 51
27 27 24 22 22 20 17 18 23 28 26 21 22 28 30 31 30 23 22 33 41 36 33 35 34 33 34 34 35 37 37 38 41 43 43 43 43 43 44 44 44 45 46 44 41 39 38 38 37 36 37 39 40 41 42 42 40 38 35 32 32 32 31 31 31 31 31 32 33 34 36 38 40 43 45 47 50 52 53 54 54 55 55 54 53 51
25 25 22 20 20 19 17 19 25 28 25 23 26 29 29 30 30 29 33 39 38 33 33 32 31 32 33 33 35 37 37 38 40 41 42 43 42 42 44 44 43 44 45 44 41 39 38 37 36 36 37 38 40 41 41 41 40 37 34 32 32 32 31 31 31 31 31 32 33 34 35 37 40 43 45 48 50 52 53 54 54 54 54 54 53 51
24 24 22 20 18 17 16 15 17 21 26 29 30 28 28 31 34 36 39 39 35 33 32 30 30 32 32 33 35 36 37 39 40 40 42 42 42 42 43 43 43 43 44 43 40 38 38 37 36 36 37 38 40 41 42 41 39 36 33 32 32 32 31 31 31 31 32 32 32 33 34 36 40 43 45 48 51 52 54 54 54 54 54 54 53 51
24 23 23 23 22 20 19 18 19 25 32 32 29 28 30 32 34 37 39 39 36 33 30 30 30 30 32 34 34 35 37 39 39 40 41 41 42 42 43 43 43 43 44 43 40 37 37 36 36 35 36 38 40 41 42 41 39 35 32 31 31 31 31 31 31 31 32 32 32 33 34 35 38 41 45 48 51 53 54 54 55 55 54 54 53 51
23 26 28 31 32 31 30 30 31 33 33 29 28 31 31 31 33 36 38 39 36 32 30 31 30 30 32 33 33 35 37 38 39 40 41 41 42 42 42 44 44 43 44 43 40 37 36 36 35 35 36 37 39 41 42 41 39 35 31 30 31 31 31 31 31 31 32 32 33 33 33 35 37 40 43 46 49 52 54 54 55 55 55 54 53 52
28 31 33 34 37 38 37 35 35 35 33 31 31 32 32 32 34 36 37 38 35 31 29 30 30 31 32 32 33 35 36 37 39 40 40 41 42 42 43 44 44 43 44 43 40 37 36 35 35 35 36 37 39 40 41 41 38 34 31 30 30 30 30 30 30 31 31 32 33 33 34 35 37 40 42 45 48 51 53 53 54 55 55 55 54 52
32 33 34 35 38 40 39 37 37 37 37 36 34 33 33 34 36 37 38 38 35 31 28 28 29 30 30 31 33 34 35 37 39 40 41 41 41 42 43 43 44 44 44 43 40 37 35 35 34 35 36 37 38 40 41 40 37 33 30 29 30 30 30 30 30 31 31 32 33 34 34 35 37 39 42 45 48 51 52 53 54 54 55 55 54 52
34 35 36 36 37 41 43 41 39 39 39 36 34 34 34 36 37 39 39 38 35 31 27 27 28 29 30 30 32 33 35 37 38 40 41 41 41 42 43 43 44 44 43 43 41 37 35 35 34 34 36 36 37 39 40 39 37 32 29 29 29 29 30 30 30 30 31 31 33 33 34 36 37 39 41 43 47 51 53 54 54 54 55 55 54 52
34 36 36 35 38 44 46 43 41 42 42 37 33 33 35 37 38 39 38 36 33 29 26 27 28 28 29 30 31 33 36 36 38 40 41 41 41 42 42 43 43 43 43 43 41 38 36 34 34 34 35 36 37 38 39 39 36 31 28 28 28 29 29 29 30 30 30 31 32 33 34 35 37 39 41 43 45 49 52 54 55 55 55 54 53 51
34 36 36 37 41 45 45 42 40 42 44 39 33 33 35 36 37 38 37 34 30 26 26 27 27 27 28 30 31 33 35 37 38 40 41 41 41 41 42 43 43 42 43 42 41 39 36 34 33 34 34 35 37 37 38 39 35 30 27 27 28 28 28 29 29 29 30 31 32 32 33 34 36 38 41 43 45 47 49 51 54 55 54 53 51 50
36 37 38 40 42 44 44 40 36 36 40 38 34 33 35 36 37 37 36 33 29 27 27 28 27 27 28 30 31 33 35 37 38 40 41 42 41 41 42 42 42 42 42 42 41 40 37 34 33 33 33 35 36 37 38 38 35 30 26 26 28 28 28 28 29 29 29 30 31 31 32 33 35 37 40 43 46 47 48 48 50 51 53 53 51 48
Wind_Direction
85 91 85 70 67 69 68 68 63 61 61 60 48 33 26 16 13 6 353 351 345 340 339 341 349 352 341 330 324 306 300 310 319 328 346 353 354 356 352 350 348 347 349 348 347 348 346 345 347 346 346 347 346 346 346 344 342 342 344 344 344 343 343 344 344 344 344 344 344 345 346 348 349 349 348 346 344 343 342 340 339 337 336 334 332 331
80 77 72 64 62 57 54 59 56 50 46 44 40 28 18 8 7 9 359 352 346 341 342 342 349 356 341 323 323 312 301 308 316 326 343 351 355 354 348 345 345 347 350 348 347 346 345 345 346 346 346 347 348 347 345 343 342 343 344 345 343 343 344 344 345 345 345 346 346 347 347 347 348 348 348 347 345 344 344 343 341 341 340 339 337 335
69 66 65 62 58 53 51 53 48 42 31 32 33 21 13 3 358 7 5 358 352 343 339 338 340 352 350 332 326 316 303 305 312 325 341 349 354 348 342 342 343 347 350 348 346 345 345 346 346 345 346 347 348 346 344 343 342 343 344 344 343 343 344 345 346 346 346 347 348 347 347 346 346 345 346 346 345 344 344 344 344 343 343 343 342 340
65 62 62 58 54 50 49 48 46 36 24 27 26 11 8 4 356 356 357 359 358 348 341 337 333 345 354 343 332 320 306 306 312 325 337 344 348 341 337 341 345 348 349 346 345 345 346 346 345 345 346 347 348 346 344 343 342 343 343 343 343 344 345 345 346 347 348 348 348 347 346 346 344 342 342 342 344 345 345 345 345 345 345 345 344 343
64 60 57 55 51 47 45 42 40 35 27 23 12 356 349 351 352 348 348 351 354 353 349 340 332 339 349 344 337 327 311 309 314 324 332 337 340 336 336 343 347 348 348 346 346 346 346 346 344 344 345 347 347 346 345 343 343 343 342 343 344 345 345 346 346 347 348 348 347 346 345 344 343 341 340 340 341 344 346 347 347 347 346 345 345 344
61 56 54 51 47 44 42 38 35 33 28 23 14 4 352 342 344 341 340 343 347 352 347 343 338 332 341 344 339 328 312 309 316 323 329 332 333 333 337 344 347 348 348 347 348 348 347 345 343 343 345 346 347 347 346 343 343 343 343 344 345 345 345 345 346 347 348 348 347 347 345 344 343 342 341 341 342 344 346 347 348 349 348 347 347 346
56 53 51 50 46 42 41 38 35 33 29 24 16 10 4 349 343 335 333 339 343 343 340 345 342 316 330 342 339 325 311 310 320 325 326 327 330 334 339 344 345 346 348 350 350 349 347 344 343 343 345 346 347 347 346 344 343 343 343 344 345 345 345 345 346 347 348 348 348 348 348 346 345 344 343 343 344 345 346 347 348 349 349 349 348 347
58 56 52 51 49 43 42 40 36 33 29 23 13 6 1 352 348 338 329 331 332 333 336 342 334 313 318 333 332 319 310 313 322 325 323 324 331 335 341 344 344 345 348 351 351 349 347 344 342 343 344 346 347 347 346 344 343 343 344 345 345 345 345 345 346 347 348 349 349 349 349 348 346 345 345 345 346 346 346 347 347 348 349 349 348 347
59 56 53 52 51 44 41 40 37 36 32 24 17 9 4 356 347 336 327 325 323 329 337 336 340 326 309 323 328 312 309 318 322 324 323 326 333 337 340 343 345 346 348 350 351 350 348 345 342 343 344 345 346 346 346 344 342 343 344 345 345 344 344 345 346 347 348 349 350 350 349 349 348 347 346 346 346 346 346 347 347 348 348 348 348 348
58 54 52 49 47 43 40 39 37 37 34 29 26 19 17 12 355 344 333 326 321 323 337 343 349 347 312 321 330 315 314 322 324 325 327 331 336 338 340 344 347 347 347 349 350 351 349 345 342 342 343 344 345 346 346 344 342 343 344 345 344 344 344 345 345 346 348 350 350 350 350 350 349 348 348 347 346 346 347 347 347 348 348 348 348 348
59 55 52 48 46 42 38 38 37 36 35 33 32 32 40 42 25 22 3 344 338 326 343 346 342 338 313 324 334 327 323 324 326 328 330 335 339 341 342 346 348 346 345 348 349 350 349 345 342 342 341 343 344 345 345 344 343 343 344 345 344 344 344 345 345 346 348 350 351 351 351 351 350 349 349 348 347 347 347 347 347 348 348 348 348 347
58 52 49 47 45 42 38 34 35 35 33 33 35 37 46 47 37 41 23 12 29 321 333 338 333 321 285 319 336 333 328 327 326 329 332 337 342 343 344 347 347 344 344 347 348 349 348 344 342 341 341 342 343 344 345 344 344 343 344 344 344 344 344 344 344 346 348 350 351 351 352 351 351 350 349 348 348 347 348 348 347 347 348 348 348 347
55 49 44 43 40 41 37 32 34 33 29 30 33 36 41 32 17 28 7 1 13 324 341 336 325 310 295 325 340 337 331 329 328 331 334 339 344 344 344 346 345 343 344 346 346 347 347 344 341 341 340 341 342 344 345 345 344 343 343 345 344 344 344 344 344 346 348 350 351 352 352 352 351 351 350 349 348 348 348 348 347 347 348 348 348 348
50 44 38 37 34 34 31 29 32 29 25 27 29 33 38 38 26 7 313 326 309 320 343 340 315 308 321 335 344 339 333 332 332 335 338 342 344 343 343 345 345 345 346 345 344 345 346 343 340 340 341 341 343 344 345 345 344 343 344 346 345 344 344 343 344 346 349 350 352 353 353 352 351 351 351 349 349 348 348 348 348 348 348 348 348 348
41 31 27 30 28 27 28 27 27 26 25 26 28 35 40 45 67 346 293 290 284 302 324 341 333 321 321 331 344 342 336 334 335 338 340 342 343 341 341 343 344 345 345 342 341 343 345 342 340 341 342 343 344 344 345 345 344 343 344 346 345 344 343 343 344 347 349 350 352 353 353 352 351 351 351 350 349 348 348 348 349 348 348 348 348 348
24 15 20 24 21 21 23 22 23 24 25 24 26 31 35 41 48 323 287 276 289 299 314 330 334 333 327 332 346 346 339 336 337 338 339 340 340 339 340 344 344 343 341 338 339 342 344 342 340 342 344 344 344 344 344 344 344 344 345 346 345 344 343 343 344 347 349 350 352 352 352 352 352 352 351 350 349 349 348 348 349 349 348 348 348 348
11 2 16 18 15 15 16 15 18 21 20 20 23 23 19 25 15 346 296 284 297 294 308 319 327 337 341 345 350 347 338 337 338 338 337 337 339 340 342 345 343 341 338 336 338 342 342 340 340 343 346 345 344 343 343 344 345 345 346 346 345 344 344 343 344 347 348 350 351 352 352 352 352 352 352 351 349 348 348 348 348 349 348 348 348 348
12 2 6 8 8 8 10 9 11 17 16 13 17 18 11 8 7 353 302 298 338 267 298 310 318 331 339 344 348 344 335 336 338 338 336 336 338 341 344 345 343 339 337 335 338 341 341 339 341 345 347 345 343 342 343 344 346 346 345 345 345 344 344 343 344 347 348 349 351 351 352 352 352 353 352 351 350 348 348 348 348 349 348 348 348 347
12 11 6 3 359 358 3 4 2 6 10 7 6 9 11 7 353 351 330 308 357 301 299 310 317 331 339 338 343 345 337 336 338 337 336 337 338 340 343 344 342 339 336 334 337 340 339 340 342 345 346 344 342 342 343 345 346 346 345 345 344 345 344 343 344 347 347 349 351 352 352 353 353 353 353 352 350 348 347 347 348 349 348 348 348 347
358 359 3 359 351 348 351 356 353 349 352 355 354 357 6 4 337 342 340 244 280 264 298 315 316 331 344 340 343 346 339 336 336 335 337 339 339 339 340 341 341 338 336 335 337 339 339 341 343 344 345 343 342 342 343 346 347 346 345 344 344 345 344 343 344 346 347 348 351 352 352 353 353 354 354 352 350 348 347 347 348 349 349 348 348 346
349 340 348 354 351 345 342 342 341 338 335 335 341 345 347 346 335 329 313 278 260 228 257 329 301 319 341 348 346 345 339 336 334 333 338 341 339 338 338 339 338 337 336 336 337 338 340 342 342 342 343 342 342 343 343 346 347 346 345 344 344 345 344 343 344 345 347 348 350 352 352 353 354 354 354 353 351 349 348 347 348 348 349 348 347 346
349 332 337 346 351 343 336 333 329 327 323 320 326 331 333 337 334 327 309 290 257 239 268 255 277 314 340 350 344 343 339 335 333 333 338 341 338 337 337 337 337 337 337 337 337 338 340 341 341 341 342 342 343 343 344 346 347 346 346 345 344 345 344 344 344 345 347 348 350 352 353 354 354 355 355 354 352 350 348 348 348 349 349 348 347 346
346 332 334 342 349 346 335 328 321 317 316 316 320 324 328 329 324 316 281 292 287 271 275 252 258 316 342 344 339 343 339 333 333 334 338 340 337 336 335 336 337 337 336 336 337 339 340 340 340 341 342 343 343 344 345 347 347 346 346 345 345 345 344 344 344 345 347 348 351 352 353 354 355 356 356 354 353 351 349 349 349 349 349 349 348 346
346 333 333 339 347 352 343 331 328 325 321 321 323 323 321 318 314 305 286 291 294 287 284 228 235 315 336 339 337 342 336 332 336 338 339 339 335 334 334 336 337 336 335 336 337 339 340 340 341 342 343 344 344 345 346 347 347 346 346 345 345 345 344 344 345 345 347 349 351 352 353 354 355 356 356 355 354 352 350 349 349 349 349 349 348 346
346 337 336 340 347 355 355 347 338 331 325 321 321 320 316 314 309 303 297 292 284 289 295 208 248 312 334 341 339 339 336 336 342 342 340 338 335 334 335 336 336 334 335 337 338 339 341 341 341 343 344 345 345 346 346 347 347 347 346 345 345 344 344 344 345 345 347 349 351 352 353 354 355 356 356 356 355 353 351 350 349 349 349 349 348 346
341 341 341 340 343 343 330 326 327 324 319 317 319 318 316 314 307 300 297 282 275 292 288 260 284 314 334 346 342 339 338 340 344 344 340 337 335 335 336 335 335 335 336 339 339 340 342 341 342 344 345 345 346 346 346 347 348 347 347 345 344 344 344 345 346 346 347 349 351 352 354 354 355 357 357 356 356 354 352 351 350 350 350 350 349 347
337 340 340 332 326 323 320 323 325 318 313 314 318 315 313 312 305 298 288 276 286 296 289 295 307 314 329 344 341 338 341 342 343 343 339 337 336 336 336 336 336 337 339 340 340 341 342 342 343 344 345 346 346 346 347 348 348 348 347 346 344 344 344 345 346 347 348 349 351 352 354 354 355 357 357 357 356 355 353 352 351 351 350 350 349 348
331 334 336 328 324 329 331 330 328 319 313 315 315 312 313 311 302 293 285 285 297 290 290 312 319 310 322 340 338 335 340 340 341 341 337 336 335 335 336 337 337 339 340 340 341 342 342 342 344 344 345 346 347 347 348 348 348 349 347 346 345 343 344 346 347 347 348 349 351 352 354 354 355 356 357 357 357 355 354 353 352 351 351 350 349 348
325 325 331 328 326 333 335 329 329 325 318 318 318 316 316 309 296 291 290 295 298 284 290 314 318 310 323 339 335 333 339 338 339 339 335 334 334 335 337 339 340 341 341 340 342 342 342 343 344 345 345 347 348 348 349 349 349 349 348 347 346 344 345 346 347 347 348 349 350 352 354 355 355 356 357 357 357 356 355 354 352 352 352 351 350 349
320 321 326 324 326 337 341 330 331 329 323 326 330 327 322 312 298 296 298 302 300 294 302 316 315 317 332 339 330 333 338 337 338 338 334 334 335 336 338 340 342 343 341 341 343 343 343 344 344 345 346 347 349 349 350 350 349 349 349 347 346 345 345 346 346 347 348 348 350 352 353 354 355 356 357 356 357 357 356 355 354 353 352 352 351 349
316 319 323 320 323 337 344 334 334 332 325 330 344 340 329 320 312 308 307 310 308 307 315 318 313 320 336 337 329 333 336 334 337 337 336 336 336 338 340 341 343 343 340 341 343 343 343 344 344 346 347 348 350 350 350 350 349 350 349 348 346 345 345 346 346 347 348 348 350 351 352 354 354 355 356 356 356 357 357 356 355 354 353 352 351 350
314 314 320 320 317 331 341 335 334 334 328 333 343 336 326 321 319 319 318 320 319 318 320 317 314 324 335 333 331 334 334 333 336 338 337 337 337 338 340 341 343 343 341 341 343 343 343 344 345 346 347 349 350 351 351 350 349 349 349 348 347 345 345 346 346 347 348 348 349 351 352 352 353 355 356 356 357 357 357 357 356 354 354 353 353 352
315 314 321 319 313 324 337 334 333 336 335 337 339 334 328 327 330 327 321 323 327 324 320 317 321 330 334 333 333 333 333 333 336 338 337 336 337 338 339 341 343 343 341 341 342 343 343 344 346 346 348 349 350 351 351 349 348 348 349 348 347 346 345 345 346 347 347 348 349 350 351 351 352 354 355 355 356 357 357 357 356 355 354 354 354 352
319 317 320 317 311 320 330 333 333 338 338 335 337 338 333 330 331 327 323 328 333 330 324 324 330 334 335 334 332 330 331 333 335 338 338 336 337 338 339 341 343 343 342 341 342 343 343 345 346 347 348 349 350 351 351 349 348 347 348 348 347 346 346 345 346 347 347 348 349 350 351 351 352 353 353 354 355 357 357 357 357 356 355 355 355 353
322 322 320 318 315 317 327 336 341 336 333 335 338 342 336 329 331 328 326 334 338 333 329 331 334 336 335 333 329 328 331 332 334 339 338 336 337 338 339 341 342 342 341 340 342 343 343 345 347 347 348 349 349 351 351 350 348 347 347 347 346 346 346 345 345 346 347 348 348 350 350 351 351 352 353 353 354 356 357 357 357 356 356 356 355 354
324 323 321 321 320 318 324 332 324 316 332 341 343 341 338 334 334 329 327 338 344 334 331 335 335 335 334 332 330 330 331 333 337 341 339 336 338 340 340 341 341 341 341 340 341 343 343 345 347 347 348 348 349 350 351 350 348 346 346 346 346 346 345 345 345 346 347 347 348 349 350 351 352 352 352 353 354 355 356 357 357 357 357 357 356 355
325 323 321 321 322 318 314 313 311 316 333 344 341 339 338 333 334 327 324 336 347 336 333 336 334 333 333 332 331 332 332 334 340 343 339 338 340 340 339 339 340 341 341 340 341 343 344 345 347 347 348 348 348 350 350 350 348 347 346 346 346 346 345 344 345 345 346 347 347 348 350 350 352 353 353 353 354 354 356 356 357 357 357 357 357 356
322 321 320 316 314 313 308 311 317 320 332 337 335 336 335 331 333 327 320 329 342 338 333 334 331 330 332 332 332 334 334 335 340 343 341 339 340 339 338 338 339 340 340 339 340 343 344 345 346 347 347 347 348 349 350 350 349 348 347 348 347 347 345 344 344 345 346 346 347 348 349 350 351 353 353 354 354 354 355 356 357 357 358 358 357 357
320 318 317 311 310 310 302 299 295 285 317 333 335 333 332 330 330 326 317 323 335 336 333 331 328 328 330 331 333 335 334 334 338 342 341 339 340 338 336 336 338 340 340 339 340 342 344 344 345 346 347 347 348 349 350 350 350 348 348 349 349 347 346 344 344 344 346 346 346 347 349 351 351 352 354 354 355 355 355 356 357 357 358 358 357 358
318 315 312 309 309 308 298 288 281 290 314 334 338 332 331 328 326 324 314 321 330 333 329 326 325 326 329 331 331 333 333 332 334 338 339 339 339 337 336 335 337 339 339 338 339 342 343 344 345 346 346 346 347 349 350 350 350 349 348 349 349 347 346 345 344 344 345 346 346 347 349 350 351 352 353 355 355 355 355 356 357 358 358 358 358 359
318 314 308 308 311 309 295 284 290 306 324 340 339 333 332 327 322 316 311 320 327 329 326 324 323 325 328 328 328 331 333 332 332 335 338 339 338 337 335 335 336 339 339 338 338 340 342 343 345 346 345 346 347 349 350 350 351 350 349 349 349 348 347 346 344 344 345 346 346 348 349 349 351 352 353 355 356 356 356 356 357 358 358 359 359 360
317 311 304 307 310 307 297 289 296 312 332 342 336 333 330 324 318 315 317 322 327 328 325 322 322 324 325 325 327 330 332 334 334 335 338 339 338 337 335 335 336 338 339 337 337 339 342 343 344 345 344 345 347 349 351 351 351 350 349 350 350 349 348 347 345 344 345 345 346 347 349 349 350 351 352 354 355 356 356 356 357 358 359 359 360 1
313 305 300 306 310 303 296 291 296 315 332 337 333 329 324 318 315 316 318 320 325 327 323 320 322 323 322 323 327 329 332 335 335 336 338 339 338 337 336 335 335 337 338 337 336 339 341 342 343 344 343 345 347 349 351 352 351 350 350 350 350 349 348 347 346 345 345 345 345 346 348 350 350 350 352 353 355 355 356 356 357 358 359 360 360 1
312 304 300 305 306 296 287 291 310 326 332 335 330 323 318 315 313 315 316 316 322 326 322 317 320 321 319 322 326 329 332 335 336 336 338 339 338 337 336 335 335 337 338 337 336 338 340 341 342 342 343 344 347 349 351 352 351 351 350 351 350 349 349 348 346 346 345 345 345 346 347 349 350 350 351 353 354 355 356 356 357 358 360 0 0 1
311 307 304 304 304 298 294 304 322 332 334 332 326 320 317 314 312 313 313 313 318 323 319 315 316 317 318 320 324 328 332 335 336 337 339 340 339 338 337 336 336 336 338 337 336 337 339 340 340 341 342 344 347 349 350 351 351 350 351 351 350 350 349 348 347 346 345 344 344 345 347 348 349 350 352 353 353 354 355 356 357 358 360 0 1 2
312 309 305 307 309 305 306 317 329 332 331 331 326 322 320 315 311 311 310 310 315 319 315 312 312 314 317 319 322 327 331 335 336 337 339 340 339 338 337 337 336 336 338 337 336 336 338 339 340 340 342 344 347 349 350 351 350 350 350 351 351 350 349 348 347 347 346 345 344 345 346 348 349 350 352 353 353 354 355 356 357 359 0 1 2 3
314 309 305 310 312 306 309 324 333 330 329 330 326 322 320 314 311 310 309 310 315 317 312 308 309 312 315 317 320 325 331 335 336 338 339 340 339 338 337 337 336 336 338 337 336 336 337 339 339 340 341 343 346 348 349 350 349 349 349 350 350 350 350 348 348 347 346 345 345 345 346 347 348 350 352 353 354 354 355 356 357 359 1 1 2 3
312 306 307 314 313 308 313 326 332 328 325 326 324 321 318 314 313 313 314 316 318 316 309 305 307 311 315 317 320 325 332 335 337 338 339 340 339 338 337 337 336 336 337 338 337 336 336 338 339 339 340 342 345 347 348 349 348 347 347 349 349 350 350 349 348 348 347 346 346 346 346 347 348 349 352 354 354 353 354 355 357 360 2 2 2 4
308 306 311 316 314 314 318 326 331 326 321 323 325 320 315 316 317 316 317 320 319 313 306 303 307 312 315 317 320 325 331 335 336 338 340 340 339 338 337 336 336 336 336 338 338 337 337 338 339 338 338 341 344 346 347 348 347 345 345 347 349 350 350 350 349 349 348 347 346 346 346 347 348 349 351 354 355 355 354 355 357 360 2 3 2 4
308 310 315 314 313 316 320 325 330 325 320 323 327 320 314 317 318 316 318 322 319 311 303 302 308 314 315 316 320 325 331 334 336 338 340 340 339 338 337 336 336 335 335 337 339 338 337 337 338 337 337 339 343 345 346 347 346 343 343 345 348 349 350 350 350 349 348 348 347 346 346 347 348 349 350 352 355 356 356 356 358 0 2 3 4 5
311 314 317 315 315 317 320 324 327 322 319 325 326 317 313 317 316 314 318 321 317 309 301 301 308 315 316 316 320 325 329 334 336 338 340 341 339 337 336 336 335 334 334 336 338 339 338 337 336 336 336 338 341 343 344 345 345 341 340 343 346 348 350 350 350 350 348 348 347 347 347 347 348 349 350 352 354 355 357 358 360 1 2 3 4 5
Height
3175 3174 3172 3170 3170 3171 3172 3172 3172 3172 3172 3171 3171 3171 3171 3171 3171 3170 3170 3169 3169 3168 3167 3166 3164 3163 3161 3159 3158 3156 3154 3153 3151 3148 3146 3144 3140 3135 3132 3130 3127 3124 3119 3114 3109 3105 3100 3097 3092 3088 3084 3080 3074 3070 3066 3062 3058 3054 3050 3045 3042 3038 3034 3030 3027 3023 3019 3016 3012 3008 3003 3000 2997 2994 2991 2987 2984 2980 2976 2972 2969 2965 2962 2958 2954 2951
3177 3173 3171 3172 3173 3173 3174 3173 3173 3173 3173 3172 3172 3171 3171 3171 3171 3170 3170 3169 3168 3167 3166 3165 3164 3163 3161 3158 3157 3155 3153 3152 3149 3147 3145 3142 3137 3134 3132 3131 3128 3123 3117 3112 3107 3103 3098 3094 3090 3085 3081 3077 3072 3068 3064 3061 3057 3052 3048 3044 3040 3036 3033 3029 3025 3021 3017 3014 3010 3006 3002 2998 2995 2992 2989 2986 2982 2979 2975 2971 2967 2963 2960 2956 2953 2949
3177 3173 3173 3174 3175 3175 3176 3175 3174 3174 3173 3172 3171 3171 3171 3170 3170 3170 3169 3169 3168 3167 3166 3164 3163 3162 3160 3158 3156 3154 3152 3151 3148 3146 3144 3140 3137 3135 3133 3131 3126 3120 3115 3110 3105 3101 3096 3091 3087 3083 3079 3075 3070 3066 3063 3059 3055 3050 3046 3043 3039 3035 3031 3027 3024 3020 3017 3013 3009 3006 3002 2998 2994 2991 2988 2985 2981 2978 2974 2970 2966 2961 2957 2954 2951 2947
3176 3175 3176 3176 3177 3178 3177 3176 3175 3175 3174 3173 3172 3172 3171 3170 3170 3169 3169 3168 3167 3166 3165 3163 3162 3160 3159 3157 3155 3154 3152 3150 3148 3145 3143 3140 3137 3136 3134 3130 3124 3118 3113 3109 3104 3099 3094 3089 3085 3081 3077 3073 3070 3066 3062 3057 3053 3049 3045 3042 3038 3034 3030 3026 3023 3019 3016 3012 3009 3005 3001 2998 2994 2990 2986 2983 2981 2977 2973 2969 2965 2960 2956 2952 2949 2945
3177 3178 3179 3179 3180 3179 3177 3177 3176 3175 3174 3173 3172 3171 3171 3170 3170 3169 3168 3167 3166 3166 3165 3163 3160 3158 3157 3155 3153 3153 3151 3150 3147 3145 3143 3140 3138 3136 3133 3128 3122 3116 3112 3108 3103 3097 3092 3087 3084 3080 3076 3072 3069 3065 3060 3056 3051 3047 3044 3040 3036 3032 3028 3025 3021 3018 3015 3012 3008 3004 3000 2996 2992 2988 2983 2979 2976 2973 2970 2967 2963 2959 2955 2951 2947 2944
3179 3181 3181 3181 3181 3179 3178 3177 3176 3174 3173 3172 3172 3171 3170 3170 3169 3169 3168 3167 3166 3165 3164 3163 3160 3157 3155 3154 3153 3152 3150 3149 3147 3145 3142 3140 3138 3135 3130 3125 3120 3116 3112 3107 3101 3095 3090 3086 3083 3079 3075 3071 3067 3063 3059 3054 3050 3046 3042 3038 3035 3031 3027 3023 3020 3017 3013 3010 3006 3003 2998 2994 2989 2985 2980 2976 2971 2967 2964 2961 2959 2956 2952 2948 2945 2941
3182 3184 3184 3183 3182 3181 3180 3178 3176 3175 3173 3172 3172 3171 3170 3169 3169 3168 3168 3167 3166 3165 3164 3164 3163 3158 3154 3154 3153 3151 3150 3148 3146 3144 3142 3139 3137 3133 3127 3123 3119 3115 3110 3104 3099 3094 3089 3085 3081 3077 3073 3069 3065 3061 3057 3053 3049 3045 3041 3037 3033 3030 3026 3022 3019 3015 3012 3008 3004 3000 2996 2991 2987 2983 2979 2974 2970 2966 2962 2959 2955 2952 2948 2945 2941 2937
3186 3186 3186 3184 3183 3183 3182 3180 3177 3175 3174 3173 3172 3170 3170 3169 3169 3168 3167 3167 3166 3166 3165 3164 3164 3160 3155 3153 3153 3151 3148 3146 3144 3143 3141 3138 3135 3130 3125 3121 3118 3113 3107 3102 3098 3093 3088 3083 3079 3074 3071 3067 3063 3059 3055 3052 3048 3044 3040 3036 3032 3028 3025 3021 3017 3014 3010 3006 3002 2998 2994 2990 2985 2981 2977 2973 2969 2966 2962 2958 2953 2950 2946 2942 2938 2934
3188 3187 3186 3186 3185 3185 3183 3180 3178 3176 3175 3173 3172 3170 3169 3169 3168 3168 3167 3167 3166 3165 3165 3164 3164 3162 3156 3153 3153 3150 3148 3146 3144 3142 3140 3137 3133 3128 3124 3120 3115 3110 3105 3101 3097 3093 3087 3082 3077 3073 3069 3065 3062 3058 3054 3050 3046 3042 3038 3034 3031 3027 3023 3019 3016 3012 3009 3005 3001 2997 2993 2988 2984 2980 2976 2972 2968 2964 2960 2956 2952 2948 2944 2940 2935 2931
3189 3188 3188 3187 3186 3185 3184 3182 3180 3178 3176 3174 3172 3170 3169 3169 3168 3167 3166 3166 3166 3165 3164 3164 3163 3162 3157 3152 3151 3150 3147 3145 3143 3141 3139 3135 3131 3126 3122 3118 3113 3108 3104 3100 3096 3092 3087 3081 3076 3072 3068 3064 3061 3057 3053 3049 3045 3041 3037 3033 3029 3026 3022 3018 3015 3011 3007 3003 2999 2995 2991 2986 2982 2978 2974 2970 2966 2962 2958 2954 2950 2946 2942 2937 2933 2929
3190 3190 3189 3188 3186 3185 3184 3183 3181 3179 3177 3175 3173 3171 3170 3169 3168 3167 3166 3165 3165 3165 3165 3164 3163 3163 3159 3150 3149 3149 3146 3144 3142 3139 3137 3134 3129 3125 3120 3115 3111 3107 3104 3100 3095 3090 3086 3081 3076 3071 3067 3063 3060 3056 3053 3048 3044 3040 3036 3032 3028 3025 3021 3017 3014 3010 3006 3002 2998 2993 2989 2984 2980 2976 2972 2968 2964 2960 2956 2952 2948 2944 2939 2935 2931 2926
3191 3191 3190 3188 3188 3186 3185 3185 3182 3180 3178 3176 3175 3172 3170 3169 3168 3167 3166 3165 3166 3166 3165 3164 3162 3163 3159 3151 3148 3147 3144 3142 3140 3137 3135 3131 3127 3122 3117 3113 3110 3107 3102 3098 3093 3088 3084 3080 3075 3071 3066 3062 3059 3055 3051 3047 3043 3038 3034 3031 3027 3023 3020 3016 3013 3009 3005 3000 2996 2992 2987 2982 2978 2974 2969 2965 2961 2957 2953 2949 2945 2941 2937 2933 2928 2924
3192 3191 3190 3189 3189 3187 3186 3185 3183 3180 3179 3176 3174 3171 3169 3169 3168 3167 3167 3167 3167 3166 3164 3163 3161 3160 3156 3151 3148 3146 3143 3141 3139 3136 3132 3128 3124 3119 3115 3112 3109 3105 3101 3096 3091 3087 3083 3078 3074 3070 3065 3061 3058 3054 3050 3046 3041 3037 3033 3029 3026 3022 3018 3015 3011 3007 3003 2999 2994 2990 2985 2981 2977 2972 2968 2963 2959 2955 2951 2947 2942 2938 2934 2929 2925 2920
3192 3191 3191 3190 3189 3188 3187 3185 3182 3180 3178 3175 3173 3171 3170 3171 3171 3171 3171 3169 3168 3166 3163 3162 3161 3157 3153 3149 3147 3145 3142 3140 3137 3134 3129 3125 3121 3117 3113 3111 3108 3103 3098 3094 3090 3086 3082 3077 3073 3069 3064 3060 3056 3052 3048 3044 3040 3036 3032 3028 3024 3021 3017 3014 3010 3006 3002 2997 2993 2988 2984 2980 2975 2971 2966 2961 2957 2953 2949 2945 2940 2935 2931 2926 2922 2917
3193 3192 3191 3190 3189 3188 3186 3184 3183 3181 3179 3176 3175 3174 3173 3174 3175 3176 3174 3172 3169 3166 3162 3160 3159 3156 3152 3148 3145 3143 3140 3138 3135 3130 3126 3123 3119 3115 3112 3109 3106 3101 3096 3092 3088 3085 3081 3076 3071 3067 3062 3058 3054 3050 3046 3042 3038 3034 3030 3027 3023 3020 3016 3012 3008 3005 3000 2996 2992 2987 2983 2978 2974 2969 2965 2960 2956 2951 2947 2943 2939 2934 2929 2924 2919 2915
3193 3192 3191 3190 3189 3187 3186 3185 3183 3181 3180 3178 3177 3176 3175 3176 3176 3176 3175 3172 3170 3167 3162 3158 3156 3154 3151 3147 3144 3141 3138 3136 3132 3128 3124 3121 3118 3115 3111 3108 3104 3099 3094 3091 3087 3083 3079 3074 3070 3065 3060 3056 3052 3048 3044 3041 3037 3033 3029 3025 3022 3018 3015 3011 3007 3003 2999 2995 2990 2986 2982 2977 2972 2968 2963 2959 2955 2950 2946 2941 2937 2932 2927 2923 2918 2913
3193 3192 3191 3190 3188 3187 3186 3184 3183 3181 3180 3179 3178 3177 3176 3176 3175 3174 3173 3171 3170 3169 3162 3157 3154 3151 3148 3144 3141 3139 3137 3134 3131 3126 3123 3120 3117 3114 3110 3106 3102 3097 3093 3089 3086 3081 3077 3072 3068 3063 3058 3053 3050 3046 3043 3039 3035 3031 3027 3023 3020 3017 3013 3009 3005 3002 2998 2993 2989 2985 2980 2976 2971 2966 2961 2957 2953 2949 2945 2940 2936 2931 2926 2921 2916 2911
3193 3192 3190 3189 3188 3187 3185 3184 3183 3182 3181 3180 3179 3178 3177 3176 3175 3174 3172 3170 3170 3169 3161 3156 3154 3150 3145 3142 3139 3137 3135 3132 3129 3125 3122 3119 3116 3111 3108 3104 3099 3094 3091 3087 3084 3080 3075 3070 3065 3060 3056 3052 3048 3045 3041 3037 3033 3029 3025 3022 3019 3015 3012 3008 3004 3000 2996 2992 2988 2984 2979 2974 2969 2965 2960 2955 2951 2947 2943 2939 2934 2929 2924 2919 2914 2909
3193 3191 3190 3189 3187 3186 3185 3184 3183 3182 3181 3180 3180 3179 3177 3176 3175 3173 3173 3171 3171 3170 3162 3155 3153 3150 3146 3142 3139 3136 3133 3130 3127 3124 3120 3117 3113 3109 3105 3102 3097 3093 3090 3086 3082 3078 3073 3068 3062 3057 3054 3050 3047 3043 3039 3035 3031 3027 3023 3020 3017 3014 3010 3006 3002 2999 2995 2991 2987 2982 2978 2973 2968 2964 2959 2954 2950 2946 2941 2937 2932 2927 2922 2917 2912 2907
3193 3191 3189 3188 3187 3186 3184 3183 3183 3182 3181 3180 3179 3178 3177 3176 3175 3173 3173 3172 3172 3172 3166 3158 3152 3148 3145 3142 3138 3135 3132 3129 3126 3122 3118 3115 3110 3107 3103 3100 3096 3093 3089 3085 3081 3076 3071 3065 3060 3056 3052 3049 3045 3041 3037 3034 3029 3026 3022 3019 3015 3012 3008 3005 3001 2998 2994 2990 2985 2981 2977 2972 2967 2962 2958 2953 2948 2944 2939 2935 2930 2925 2920 2915 2910 2905
3193 3191 3189 3187 3186 3185 3183 3183 3182 3181 3180 3180 3179 3178 3177 3176 3175 3173 3172 3171 3171 3171 3169 3165 3155 3146 3143 3142 3137 3134 3132 3129 3125 3120 3116 3113 3108 3105 3102 3098 3095 3091 3087 3083 3079 3074 3069 3064 3059 3055 3051 3048 3044 3040 3036 3032 3028 3024 3021 3017 3014 3011 3007 3004 3000 2996 2992 2988 2984 2980 2975 2971 2966 2961 2956 2951 2947 2942 2938 2933 2928 2923 2918 2913 2908 2903
3193 3191 3189 3186 3185 3184 3183 3182 3181 3180 3180 3178 3178 3177 3176 3175 3173 3172 3171 3169 3169 3168 3167 3167 3159 3145 3140 3140 3136 3134 3132 3128 3124 3119 3114 3111 3107 3103 3100 3097 3093 3089 3084 3081 3077 3072 3067 3063 3058 3054 3050 3046 3043 3039 3035 3030 3026 3023 3019 3016 3012 3009 3005 3002 2999 2995 2991 2987 2983 2979 2974 2970 2965 2960 2955 2950 2945 2941 2936 2931 2927 2921 2916 2911 2906 2901
3192 3191 3189 3186 3185 3183 3182 3181 3180 3179 3179 3178 3177 3175 3174 3173 3172 3172 3171 3168 3167 3166 3163 3165 3159 3144 3137 3138 3135 3133 3131 3127 3123 3118 3113 3109 3105 3101 3098 3095 3091 3086 3082 3079 3075 3070 3066 3061 3057 3053 3049 3045 3041 3037 3033 3029 3025 3021 3017 3014 3011 3007 3004 3000 2997 2994 2990 2986 2982 2977 2973 2968 2964 2959 2954 2949 2944 2939 2934 2930 2925 2920 2914 2909 2904 2899
3191 3190 3188 3185 3183 3182 3181 3180 3180 3179 3178 3176 3175 3174 3172 3172 3170 3170 3169 3167 3165 3162 3159 3162 3156 3140 3135 3137 3134 3132 3130 3126 3122 3117 3111 3107 3103 3100 3097 3093 3089 3084 3081 3077 3072 3068 3064 3060 3055 3051 3047 3043 3039 3035 3031 3027 3023 3019 3015 3012 3009 3005 3002 2999 2996 2992 2989 2985 2980 2976 2972 2967 2962 2957 2953 2948 2943 2938 2933 2928 2923 2918 2913 2907 2902 2897
3192 3190 3187 3184 3181 3179 3178 3178 3177 3177 3176 3175 3174 3173 3171 3170 3169 3167 3166 3165 3163 3159 3157 3159 3151 3137 3134 3135 3133 3131 3128 3124 3120 3115 3110 3106 3102 3099 3095 3091 3087 3083 3079 3075 3070 3066 3062 3058 3054 3049 3045 3041 3037 3033 3030 3026 3022 3018 3014 3010 3007 3004 3001 2998 2994 2991 2987 2983 2979 2975 2970 2966 2961 2956 2951 2946 2941 2936 2931 2926 2921 2916 2911 2905 2900 2895
3192 3190 3188 3186 3184 3182 3180 3178 3177 3175 3174 3173 3172 3171 3169 3168 3167 3165 3164 3163 3161 3157 3155 3154 3145 3135 3133 3133 3131 3129 3125 3120 3117 3113 3108 3104 3101 3098 3094 3090 3086 3082 3077 3073 3068 3064 3060 3056 3052 3047 3043 3039 3035 3032 3028 3024 3020 3016 3012 3009 3006 3003 2999 2996 2993 2989 2986 2982 2978 2973 2969 2964 2960 2955 2950 2945 2940 2935 2930 2925 2920 2914 2909 2903 2898 2892
3192 3190 3188 3186 3186 3185 3183 3180 3178 3175 3172 3170 3170 3169 3167 3166 3164 3163 3162 3160 3157 3155 3151 3148 3143 3135 3130 3129 3128 3126 3122 3118 3114 3111 3106 3103 3099 3096 3092 3088 3084 3079 3075 3071 3067 3062 3058 3054 3050 3046 3042 3038 3034 3030 3027 3023 3019 3015 3011 3008 3004 3001 2998 2995 2991 2988 2984 2980 2976 2972 2967 2963 2958 2953 2948 2944 2938 2933 2929 2924 2918 2913 2907 2901 2895 2890
3190 3189 3188 3185 3184 3183 3181 3179 3177 3175 3171 3168 3167 3166 3165 3164 3162 3160 3158 3156 3156 3154 3146 3142 3142 3136 3129 3127 3126 3123 3120 3116 3113 3109 3105 3101 3098 3094 3090 3086 3081 3076 3072 3068 3064 3060 3056 3052 3048 3044 3041 3037 3033 3029 3025 3021 3017 3013 3010 3006 3003 3000 2996 2993 2990 2986 2983 2979 2975 2971 2966 2961 2957 2952 2947 2942 2937 2932 2927 2922 2917 2911 2905 2899 2893 2888
3189 3188 3187 3185 3182 3181 3180 3178 3176 3174 3170 3167 3165 3163 3162 3161 3158 3156 3154 3153 3154 3151 3144 3139 3139 3135 3129 3127 3125 3122 3119 3115 3111 3108 3104 3101 3097 3093 3088 3084 3079 3074 3070 3066 3062 3058 3054 3050 3046 3042 3039 3035 3031 3027 3023 3019 3015 3012 3008 3005 3002 2998 2995 2991 2988 2985 2981 2978 2974 2969 2965 2960 2956 2951 2946 2941 2936 2931 2926 2921 2915 2909 2903 2898 2892 2886
3188 3186 3185 3183 3181 3179 3179 3177 3174 3171 3168 3165 3163 3161 3159 3158 3157 3154 3152 3151 3150 3147 3143 3139 3136 3131 3129 3127 3123 3120 3117 3113 3110 3107 3104 3100 3095 3090 3086 3081 3076 3072 3068 3064 3060 3056 3051 3047 3044 3040 3037 3033 3029 3025 3021 3018 3014 3010 3007 3004 3000 2997 2993 2990 2987 2983 2980 2976 2972 2968 2964 2959 2955 2950 2945 2940 2935 2930 2925 2919 2913 2908 2902 2896 2890 2884
3187 3185 3183 3181 3178 3177 3176 3175 3172 3169 3166 3163 3161 3160 3158 3156 3155 3153 3150 3150 3148 3145 3141 3139 3133 3128 3127 3125 3121 3118 3115 3111 3109 3105 3101 3097 3092 3088 3083 3079 3074 3070 3065 3061 3058 3053 3049 3045 3042 3038 3035 3031 3027 3023 3019 3016 3012 3009 3005 3002 2999 2995 2992 2989 2985 2982 2978 2975 2971 2967 2962 2958 2954 2949 2945 2940 2934 2929 2924 2918 2912 2906 2901 2895 2889 2883
3186 3184 3182 3179 3176 3174 3173 3171 3169 3167 3163 3161 3159 3158 3156 3154 3153 3151 3150 3148 3147 3143 3139 3136 3132 3127 3125 3122 3118 3115 3113 3109 3106 3102 3098 3094 3090 3086 3081 3076 3072 3068 3063 3059 3055 3051 3047 3044 3040 3036 3032 3029 3025 3021 3017 3014 3010 3007 3004 3000 2997 2994 2991 2987 2984 2981 2977 2973 2969 2965 2961 2956 2952 2948 2943 2939 2933 2928 2922 2917 2911 2905 2900 2893 2887 2881
3185 3183 3181 3178 3174 3171 3170 3169 3166 3164 3161 3159 3158 3156 3154 3152 3151 3150 3149 3147 3145 3142 3138 3134 3130 3126 3123 3120 3115 3112 3110 3106 3103 3100 3096 3091 3087 3083 3079 3075 3070 3065 3060 3057 3053 3050 3046 3042 3038 3034 3030 3027 3023 3019 3015 3012 3009 3005 3002 2999 2996 2993 2989 2986 2983 2979 2976 2972 2968 2964 2959 2955 2951 2946 2942 2937 2932 2927 2921 2916 2910 2904 2898 2892 2886 2879
3184 3182 3180 3178 3173 3168 3167 3166 3164 3162 3159 3157 3156 3155 3153 3151 3150 3149 3147 3145 3143 3140 3136 3132 3128 3124 3121 3117 3113 3110 3106 3103 3100 3098 3094 3089 3085 3081 3077 3073 3068 3063 3059 3055 3051 3048 3044 3040 3036 3032 3029 3025 3021 3017 3014 3010 3007 3003 3000 2997 2994 2991 2988 2984 2981 2978 2974 2970 2967 2963 2958 2954 2949 2945 2940 2935 2930 2925 2920 2914 2909 2903 2897 2891 2885 2879
3182 3180 3178 3177 3173 3168 3165 3164 3162 3160 3159 3157 3155 3153 3152 3150 3148 3146 3143 3142 3140 3137 3133 3129 3125 3122 3118 3115 3112 3108 3104 3100 3098 3095 3091 3087 3084 3079 3074 3070 3066 3061 3057 3053 3050 3046 3042 3038 3034 3030 3027 3023 3019 3016 3012 3008 3005 3002 2998 2996 2992 2989 2986 2983 2980 2976 2973 2969 2965 2961 2957 2953 2948 2943 2938 2934 2929 2924 2919 2913 2907 2901 2895 2889 2883 2877
3181 3179 3177 3175 3172 3168 3165 3165 3163 3160 3157 3155 3153 3151 3150 3148 3146 3142 3139 3138 3137 3134 3130 3126 3122 3119 3116 3113 3109 3105 3101 3097 3094 3092 3089 3085 3081 3076 3071 3067 3064 3059 3055 3051 3048 3044 3040 3036 3032 3028 3025 3022 3018 3014 3011 3007 3004 3000 2997 2994 2991 2988 2984 2981 2978 2975 2971 2967 2964 2960 2956 2951 2947 2942 2937 2932 2927 2922 2917 2912 2906 2900 2894 2888 2882 2875
3179 3177 3175 3174 3172 3168 3165 3164 3161 3157 3154 3153 3151 3149 3148 3146 3144 3140 3135 3132 3132 3130 3127 3123 3119 3116 3113 3110 3106 3102 3098 3093 3090 3089 3086 3081 3078 3073 3069 3065 3062 3057 3053 3049 3046 3042 3038 3034 3031 3027 3023 3020 3016 3013 3009 3006 3002 2999 2995 2992 2989 2986 2983 2979 2976 2973 2969 2966 2962 2958 2954 2950 2945 2941 2935 2930 2926 2921 2916 2910 2905 2899 2893 2887 2880 2874
3178 3176 3174 3173 3171 3169 3166 3162 3159 3155 3152 3151 3149 3148 3146 3143 3141 3138 3133 3128 3128 3127 3123 3120 3116 3113 3110 3107 3103 3099 3095 3090 3087 3086 3083 3078 3075 3071 3067 3063 3059 3055 3051 3047 3043 3040 3036 3032 3029 3026 3022 3019 3015 3012 3008 3004 3001 2997 2994 2990 2987 2984 2981 2978 2975 2971 2968 2964 2960 2957 2953 2948 2944 2939 2935 2929 2924 2919 2914 2909 2903 2898 2891 2885 2879 2873
3176 3174 3172 3171 3169 3168 3166 3164 3161 3157 3152 3149 3148 3146 3144 3141 3138 3136 3131 3125 3123 3123 3120 3116 3113 3110 3107 3104 3100 3097 3093 3088 3084 3082 3080 3076 3072 3069 3065 3061 3057 3053 3049 3045 3041 3038 3035 3031 3028 3024 3021 3017 3014 3010 3006 3003 2999 2996 2992 2988 2985 2982 2979 2976 2973 2970 2966 2963 2959 2955 2951 2947 2942 2938 2933 2928 2923 2918 2913 2907 2902 2897 2891 2884 2878 2872
3174 3171 3169 3168 3167 3166 3164 3162 3159 3154 3150 3148 3147 3144 3141 3139 3136 3133 3129 3123 3120 3120 3117 3113 3110 3107 3104 3101 3098 3095 3092 3088 3083 3080 3078 3074 3071 3067 3063 3059 3055 3051 3047 3043 3039 3037 3033 3030 3026 3022 3019 3016 3012 3009 3005 3001 2997 2994 2990 2987 2983 2980 2977 2975 2972 2969 2965 2962 2958 2954 2950 2946 2941 2937 2932 2927 2922 2917 2912 2906 2901 2896 2890 2884 2878 2872
3171 3168 3166 3165 3164 3163 3161 3159 3154 3150 3147 3145 3144 3142 3139 3136 3133 3131 3127 3122 3118 3117 3115 3111 3108 3105 3102 3100 3097 3094 3092 3088 3083 3079 3076 3073 3068 3064 3060 3057 3053 3049 3045 3041 3037 3035 3032 3028 3024 3021 3017 3014 3011 3007 3004 3000 2996 2992 2989 2985 2982 2979 2976 2973 2970 2967 2964 2960 2957 2953 2948 2944 2940 2935 2931 2926 2921 2916 2911 2906 2901 2895 2890 2884 2878 2873
3170 3166 3163 3163 3162 3160 3158 3156 3151 3146 3143 3143 3141 3139 3137 3134 3130 3127 3124 3120 3117 3114 3111 3109 3106 3103 3100 3098 3095 3092 3089 3086 3082 3077 3074 3070 3066 3062 3058 3054 3051 3047 3044 3039 3036 3033 3030 3026 3023 3019 3016 3013 3009 3006 3002 2998 2994 2991 2987 2984 2981 2978 2974 2971 2968 2965 2962 2959 2955 2952 2948 2943 2939 2934 2929 2925 2920 2915 2910 2905 2900 2895 2889 2884 2878 2873
3169 3165 3161 3160 3160 3157 3155 3154 3150 3144 3141 3140 3139 3136 3134 3131 3128 3124 3120 3117 3115 3112 3109 3106 3103 3101 3098 3095 3093 3090 3086 3083 3080 3076 3072 3068 3064 3060 3056 3052 3049 3046 3042 3038 3034 3031 3028 3024 3021 3018 3014 3011 3008 3004 3000 2997 2993 2989 2986 2983 2980 2977 2973 2970 2967 2964 2961 2957 2954 2951 2947 2943 2938 2933 2928 2923 2919 2914 2909 2904 2899 2894 2889 2883 2878 2873
3166 3163 3160 3159 3158 3155 3152 3151 3148 3143 3141 3139 3137 3134 3132 3128 3125 3121 3116 3113 3111 3109 3106 3103 3101 3099 3096 3092 3090 3087 3084 3081 3078 3074 3070 3066 3062 3058 3054 3050 3047 3043 3040 3036 3032 3029 3026 3022 3020 3017 3013 3009 3006 3002 2999 2995 2991 2988 2985 2982 2979 2975 2972 2969 2965 2962 2959 2956 2953 2950 2946 2942 2938 2934 2928 2923 2918 2913 2908 2903 2898 2893 2888 2882 2877 2871
3164 3161 3159 3157 3154 3151 3148 3145 3143 3141 3139 3138 3134 3131 3128 3125 3122 3118 3113 3109 3107 3106 3103 3100 3098 3096 3093 3090 3087 3085 3082 3079 3075 3072 3068 3064 3060 3057 3052 3048 3045 3041 3038 3034 3030 3027 3024 3021 3018 3015 3011 3007 3004 3000 2997 2993 2990 2987 2984 2981 2978 2974 2971 2967 2964 2961 2958 2955 2952 2948 2945 2941 2938 2933 2929 2924 2918 2913 2908 2903 2898 2893 2887 2882 2876 2870
3160 3158 3155 3152 3149 3145 3142 3141 3140 3137 3135 3134 3131 3127 3124 3120 3117 3114 3110 3106 3104 3102 3100 3097 3095 3093 3091 3088 3085 3082 3080 3077 3073 3069 3066 3062 3058 3054 3050 3046 3043 3039 3036 3032 3029 3025 3022 3019 3016 3013 3009 3006 3002 2998 2995 2992 2988 2985 2982 2979 2976 2973 2969 2966 2963 2959 2956 2953 2950 2947 2944 2940 2937 2933 2928 2923 2917 2913 2908 2903 2898 2892 2886 2881 2875 2869
3156 3154 3151 3149 3145 3140 3136 3136 3136 3133 3129 3128 3126 3123 3120 3116 3113 3110 3106 3103 3101 3099 3097 3095 3092 3090 3088 3086 3083 3080 3077 3074 3071 3067 3064 3060 3056 3052 3048 3044 3040 3037 3034 3030 3027 3024 3021 3018 3015 3011 3008 3004 3000 2997 2994 2990 2987 2984 2981 2978 2975 2972 2968 2965 2961 2958 2955 2951 2948 2945 2942 2938 2935 2932 2928 2922 2916 2911 2906 2902 2897 2892 2886 2880 2875 2870
3153 3150 3147 3145 3142 3136 3131 3131 3132 3128 3125 3124 3121 3117 3115 3111 3108 3105 3103 3100 3098 3096 3094 3092 3090 3087 3085 3083 3080 3077 3075 3072 3068 3065 3061 3058 3054 3050 3046 3042 3038 3035 3032 3028 3025 3022 3019 3016 3013 3009 3006 3002 2999 2996 2992 2989 2985 2982 2980 2977 2974 2970 2967 2963 2960 2957 2953 2950 2947 2943 2940 2937 2933 2930 2927 2922 2916 2910 2905 2900 2895 2890 2885 2879 2873 2868
3150 3146 3144 3142 3138 3132 3128 3127 3126 3121 3118 3119 3118 3113 3109 3106 3103 3100 3099 3097 3095 3093 3090 3088 3087 3085 3082 3080 3077 3074 3072 3069 3066 3062 3059 3056 3051 3048 3044 3040 3036 3033 3029 3026 3023 3020 3017 3014 3010 3008 3004 3001 2997 2994 2991 2988 2984 2981 2979 2976 2973 2969 2966 2962 2959 2956 2952 2949 2946 2942 2939 2935 2932 2929 2925 2921 2916 2910 2904 2898 2893 2887 2882 2877 2871 2866
3146 3142 3141 3139 3134 3129 3126 3125 3123 3116 3111 3111 3112 3109 3105 3102 3098 3095 3094 3092 3090 3088 3086 3084 3083 3082 3080 3077 3075 3072 3069 3067 3064 3060 3057 3053 3049 3045 3041 3038 3034 3030 3027 3024 3020 3017 3014 3011 3008 3006 3003 2999 2996 2993 2989 2986 2983 2980 2978 2975 2972 2968 2965 2961 2958 2955 2951 2948 2945 2942 2938 2935 2931 2928 2924 2920 2916 2911 2904 2898 2892 2886 2881 2876 2871 2866
3142 3139 3138 3135 3131 3126 3123 3122 3119 3114 3109 3107 3107 3104 3101 3098 3095 3091 3090 3089 3086 3084 3082 3080 3079 3079 3077 3074 3072 3069 3066 3064 3061 3057 3054 3050 3046 3042 3039 3035 3032 3028 3024 3021 3018 3015 3012 3009 3006 3003 3001 2998 2995 2991 2988 2985 2981 2979 2976 2973 2970 2967 2964 2960 2957 2954 2950 2947 2944 2941 2938 2934 2931 2927 2923 2919 2915 2911 2906 2899 2893 2887 2882 2877 2872 2867